Location: Rounton
(54.4000°N, 1.3500°W)
Time: 03:33:50
(UTC+00:00)

Vanguard 1 - Pass Details

Date: 04 December 2021
Orbit: 652 x 3830 km, 34.2° (Epoch: 17 January)

Event Time Altitude Azimuth Distance (km) Brightness Sun altitude
Exits shadow 03:16:11 39° 194° (SSW) 4,439 13.0 -40.8°
Maximum altitude 03:16:37 39° 191° (S) 4,414 13.0 -40.7°
Drops below altitude 10° 03:31:24 10° 130° (SE) 5,210 14.0 -38.7°
Sets 03:35:03 0° 123° (ESE) 5,834 14.5 -38.2°
